Theta_e
321 325 327 326 325 329 327 329 329 327 321 320 319 320 320 321 316 317 318 319 324 327 328 331 332 333 333 332 326 321 317 317 317 316 316 316 317 318 319 320 321 322 323 324
319 325 325 325 325 328 330 330 332 325 321 323 325 324 322 323 324 322 318 318 318 323 325 327 330 332 333 332 328 323 320 318 318 318 317 317 318 319 320 321 321 322 323 325
325 325 324 327 328 330 331 331 331 328 318 317 319 323 322 322 325 324 324 321 319 318 322 324 328 329 331 333 331 327 323 319 318 319 319 319 319 321 321 321 323 324 325 327
323 323 326 327 330 329 331 323 324 319 322 327 321 328 327 325 323 322 324 324 320 317 318 322 324 327 328 327 331 331 328 326 323 319 319 320 320 321 322 324 325 326 326 328
321 321 327 329 329 328 324 317 315 315 315 319 317 319 321 322 325 323 323 323 321 319 318 318 322 324 322 326 329 332 332 330 328 328 325 322 321 322 325 327 327 327 328 329
316 320 324 325 318 318 313 315 315 313 317 322 322 319 321 322 321 322 323 323 322 322 319 318 318 322 322 323 323 326 330 330 330 330 330 328 327 327 329 329 328 328 328 328
317 322 315 317 317 316 316 321 322 324 322 325 316 320 322 321 319 318 318 319 321 323 321 318 317 319 321 322 321 321 323 325 328 331 331 329 329 329 329 329 328 328 328 328
318 318 318 317 318 317 317 322 321 324 322 321 309 318 318 316 315 315 314 318 316 315 320 320 316 316 318 320 319 320 321 320 322 325 326 327 327 328 328 328 328 329 328 327
320 317 313 318 315 316 317 322 315 312 305 313 314 314 314 313 313 313 312 314 313 313 315 316 316 315 315 317 318 318 317 318 320 320 321 324 323 323 323 325 327 328 328 328
317 315 313 316 316 315 318 316 320 317 316 316 317 317 316 313 312 312 311 312 314 313 313 313 313 313 313 313 313 314 315 317 318 320 321 321 320 321 321 323 325 326 328 329
315 313 312 313 316 316 315 317 317 318 318 319 319 318 312 313 311 312 311 312 312 311 311 311 311 311 311 311 311 311 311 312 312 312 315 319 322 323 324 324 325 327 329 331
313 312 313 313 310 314 314 317 317 320 319 317 316 315 309 309 309 310 310 311 311 310 310 310 310 310 310 310 310 310 309 309 309 310 310 311 316 323 325 326 327 328 328 330
311 312 314 314 312 309 314 315 317 315 312 315 316 316 309 310 310 310 310 311 310 310 310 311 311 311 310 310 311 310 310 309 309 309 309 309 310 312 319 323 324 325 325 327
311 312 312 315 314 311 313 315 315 316 313 314 315 317 315 310 310 310 311 310 310 310 311 311 311 310 310 310 310 310 310 310 310 310 310 309 309 309 310 311 315 318 320 323
311 310 312 312 312 311 313 315 314 317 316 316 316 315 314 311 310 311 312 312 312 311 311 311 310 310 310 310 310 310 309 310 310 310 310 309 309 310 312 314 314 315 314 314
310 309 310 308 310 311 312 313 314 314 315 315 314 313 313 314 315 312 312 311 311 311 311 310 310 310 310 309 309 309 309 309 310 310 310 310 310 310 310 310 310 310 310 310
311 311 310 311 308 308 308 310 312 313 312 314 315 313 312 311 310 311 311 311 311 311 310 310 310 310 309 308 308 308 309 309 309 309 310 310 310 310 310 310 309 310 310 311
310 310 311 308 309 310 308 309 310 311 312 311 312 312 311 311 313 312 311 311 311 310 310 310 309 309 309 309 309 308 308 308 308 309 309 310 310 310 310 309 309 310 311 312
309 310 309 310 307 308 309 307 309 309 310 311 311 311 311 311 311 311 311 311 311 310 310 309 309 308 308 308 309 310 309 308 307 307 307 308 308 309 309 309 309 310 311 312
309 310 311 312 306 307 309 307 309 308 309 308 309 309 309 309 308 309 310 310 310 310 309 308 308 308 308 308 308 308 308 308 308 307 307 306 307 307 308 308 309 309 310 311
308 310 311 305 303 306 307 304 310 307 308 308 309 310 309 307 309 310 309 310 309 308 307 307 307 308 309 309 309 309 309 309 308 307 308 307 306 306 307 307 308 308 310 311
309 309 310 303 303 308 306 306 308 308 307 308 309 309 310 310 309 309 308 307 307 306 306 308 308 307 307 307 307 307 307 308 308 308 307 307 307 306 306 306 306 306 306 308
307 308 309 309 308 306 306 307 309 310 309 308 308 307 308 308 307 306 306 306 306 306 305 306 305 305 305 305 305 305 305 306 307 307 307 307 306 306 306 305 305 304 305 305
306 306 305 305 305 304 307 307 308 308 309 309 309 308 308 308 306 306 305 305 304 304 303 303 303 303 303 303 303 303 303 303 303 304 305 306 306 306 305 305 304 304 304 303
303 305 303 302 302 304 305 307 308 308 307 307 307 308 308 306 305 305 304 303 302 302 302 301 301 301 301 301 301 301 301 301 301 301 302 303 304 305 305 303 303 302 302 301
303 304 307 306 304 306 306 308 308 307 306 305 306 305 305 305 305 303 302 301 301 300 300 300 300 299 299 299 299 299 299 299 299 299 300 301 302 303 302 302 301 300 300 299
Wind_Speed
11 5 14 18 14 5 16 12 9 12 9 6 13 12 12 17 14 14 15 18 23 24 22 25 26 30 28 29 31 30 30 30 30 30 30 29 28 27 26 24 22 21 20 19
5 15 12 13 15 13 9 14 10 8 6 4 7 14 13 16 18 22 21 19 19 20 22 25 28 30 31 34 34 34 34 31 31 31 30 30 29 28 26 25 24 24 24 20
14 6 12 12 14 13 15 13 9 5 5 3 4 7 9 9 24 27 29 24 22 22 22 23 26 30 31 35 36 37 36 34 34 33 31 30 28 28 28 29 28 28 27 23
6 10 19 15 15 9 5 1 7 11 7 2 6 5 7 14 19 19 28 32 33 31 25 29 29 31 33 36 37 35 36 37 35 35 35 36 36 37 35 32 31 30 29 25
8 15 17 18 16 11 2 9 9 7 5 3 5 2 5 2 12 18 25 31 33 37 35 31 32 35 32 33 37 39 39 38 37 38 38 38 38 37 35 33 32 30 27 27
8 13 10 6 6 9 13 13 11 6 3 3 7 6 5 5 5 4 13 31 36 36 34 36 35 34 33 32 35 39 42 41 38 39 39 40 40 39 38 36 34 32 30 31
9 13 5 18 14 11 2 9 3 2 2 5 1 6 12 7 8 1 7 10 16 32 34 34 37 36 34 35 35 37 39 42 43 42 43 43 42 41 41 39 37 37 34 33
8 4 9 15 10 11 16 2 5 7 5 2 2 7 5 6 9 11 14 14 14 5 27 31 32 35 35 36 34 36 39 41 42 42 45 45 44 43 43 42 40 40 40 38
12 4 13 18 8 15 6 4 3 6 2 3 5 5 7 12 7 9 8 6 7 7 4 9 22 27 32 34 36 35 36 40 42 43 44 44 45 45 45 44 42 42 42 41
8 8 3 11 12 2 7 8 4 1 5 4 5 4 5 4 6 6 6 11 10 6 8 12 14 19 22 26 29 33 36 38 39 41 44 45 45 46 46 44 44 44 44 40
14 6 3 5 6 11 5 6 4 5 4 4 0 4 3 7 5 3 8 5 6 5 5 8 10 11 13 17 21 24 28 33 37 38 40 43 45 46 46 46 45 44 41 38
4 6 7 7 2 4 4 8 4 4 4 3 3 5 5 7 6 7 10 7 4 8 10 10 13 10 5 5 12 17 21 25 28 33 37 38 42 42 43 45 45 44 41 40
10 5 8 4 5 3 9 11 13 4 3 6 5 5 7 9 5 7 12 4 7 7 5 7 12 11 6 8 9 10 12 17 21 24 28 32 36 40 42 43 43 41 40 41
9 5 6 12 6 11 8 11 12 5 3 3 8 5 4 6 7 8 7 6 6 4 9 14 13 7 7 10 11 11 11 12 14 16 19 23 26 30 34 36 37 36 35 35
6 5 6 7 12 15 24 26 18 19 21 12 19 13 10 7 9 13 7 3 9 14 12 12 14 7 13 15 15 15 13 13 11 12 15 15 16 19 23 27 30 30 32 33
4 4 5 5 9 12 15 17 23 27 24 20 13 15 4 18 16 6 1 2 7 9 9 15 8 16 14 14 14 13 13 13 13 13 12 13 15 18 20 23 25 28 31 33
11 6 5 2 6 8 1 25 25 22 18 25 15 18 4 6 6 7 9 13 16 16 16 14 15 15 11 9 10 12 13 12 12 13 14 15 16 18 19 21 23 26 27 29
10 6 3 3 5 3 7 18 19 24 24 26 23 13 7 10 18 18 15 20 24 21 20 17 16 10 12 14 15 15 14 14 14 14 15 16 17 17 19 20 21 22 23 25
5 5 4 6 3 4 7 13 20 14 18 22 27 19 22 21 19 26 26 22 25 25 22 19 20 17 17 17 15 15 15 15 16 18 18 17 19 20 20 19 19 20 21 21
4 3 3 4 6 11 3 13 24 9 18 16 21 18 17 20 10 16 18 25 28 30 31 22 18 15 12 10 9 10 10 11 12 15 17 18 18 19 21 20 18 18 19 20
12 14 14 3 4 7 7 11 24 11 8 11 31 30 20 9 20 13 11 14 16 16 14 12 10 7 5 4 5 8 9 10 12 14 15 17 17 17 17 19 20 17 18 19
11 12 9 3 2 14 13 13 20 7 6 8 9 18 20 20 16 16 12 11 11 10 9 10 9 6 4 1 1 3 6 7 9 10 13 15 16 17 17 17 18 18 18 18
5 7 9 12 8 3 19 13 20 21 15 8 12 12 9 9 11 13 11 10 10 11 11 10 7 5 3 2 2 3 6 8 10 11 10 12 13 14 16 16 16 17 17 18
2 5 4 4 7 7 17 8 25 18 13 11 10 11 9 11 14 14 13 13 12 12 9 8 6 5 3 2 3 4 5 6 7 9 11 12 12 11 12 13 13 14 16 18
5 10 7 2 2 6 3 19 18 23 22 16 15 13 12 14 17 16 17 17 17 15 12 9 7 5 4 3 3 3 4 5 6 9 10 12 13 13 12 12 11 11 11 14
3 5 8 7 18 10 9 29 25 24 23 19 16 15 14 15 18 20 21 19 17 15 13 11 9 7 6 4 3 3 3 5 8 9 10 11 12 13 14 15 14 13 13 13
Wind_Direction
177 190 202 189 191 171 175 190 184 200 175 154 219 235 235 227 184 205 228 246 206 209 210 214 218 220 210 213 216 220 217 214 213 214 214 216 222 224 224 229 233 237 242 236
139 217 192 186 197 215 224 188 204 89 146 178 224 240 236 231 239 224 213 219 239 211 208 214 213 218 215 216 216 218 222 219 220 221 222 223 226 230 234 236 237 238 242 242
193 183 188 178 200 216 209 204 190 131 146 270 338 270 245 242 227 236 233 219 221 227 215 213 215 224 218 217 221 221 225 225 225 226 225 227 230 234 236 235 238 239 241 242
212 171 175 188 205 184 193 6 92 119 154 223 169 287 226 220 222 219 225 225 218 214 211 210 215 222 225 226 219 224 227 228 230 229 228 230 232 233 239 242 243 242 244 241
165 172 176 183 193 188 180 100 97 95 86 4 182 276 253 301 212 220 219 226 224 221 214 209 214 225 232 226 220 221 226 231 230 233 234 234 236 239 242 245 245 244 244 237
158 173 171 161 94 113 150 99 72 62 78 260 196 183 260 226 220 228 204 220 225 226 225 224 221 225 232 230 226 225 228 230 230 233 235 237 239 240 240 242 242 246 243 237
126 171 117 138 99 138 308 158 88 104 179 226 109 211 245 277 282 294 290 265 248 229 227 224 224 222 229 229 229 228 228 231 231 231 236 240 240 242 246 247 247 248 245 239
147 200 176 175 164 167 188 239 144 181 184 188 312 234 242 254 260 258 257 249 261 332 225 225 227 228 230 234 234 234 233 235 234 234 236 240 244 244 245 248 249 247 252 252
165 119 169 182 129 146 184 187 78 107 39 67 203 262 289 264 272 253 262 239 247 262 223 215 229 237 233 235 240 241 241 241 240 239 240 240 243 246 246 248 247 247 251 254
142 112 198 174 133 226 166 141 92 305 137 227 242 240 228 231 247 233 210 228 219 238 252 243 247 248 242 244 244 244 248 249 248 246 243 245 246 248 251 250 247 247 248 247
133 109 160 119 207 174 151 177 187 143 172 170 253 256 229 189 163 134 155 135 160 180 200 213 227 241 240 239 245 250 247 248 250 250 247 248 249 249 250 252 252 247 242 239
111 110 148 179 36 188 233 166 166 164 224 220 132 270 183 158 168 143 133 121 138 109 93 90 69 49 21 303 271 264 265 262 254 250 249 245 246 247 249 248 250 248 245 242
159 139 116 164 341 228 209 190 193 106 87 203 150 246 195 140 165 168 159 93 136 113 75 35 5 352 328 315 305 294 281 269 264 259 257 256 250 247 246 249 252 253 251 249
110 153 149 187 144 120 172 192 198 206 152 156 231 215 159 166 177 156 161 142 163 235 306 328 342 332 345 327 318 311 306 308 291 277 270 264 258 254 255 256 256 256 256 253
125 136 141 145 151 162 180 181 180 197 216 191 234 222 224 201 190 167 161 270 306 304 308 326 320 313 320 311 299 291 285 289 290 282 270 263 259 254 250 253 258 260 260 259
179 136 116 19 152 161 176 183 190 204 208 226 239 265 186 224 245 269 169 300 277 273 293 311 282 311 306 300 290 280 280 281 278 277 279 274 270 266 262 262 266 268 267 268
176 130 124 123 102 100 17 199 196 212 207 222 221 230 162 206 243 226 247 257 269 284 285 285 285 290 285 286 301 298 288 283 280 277 271 267 266 266 271 273 272 272 273 272
146 104 82 143 119 163 236 172 198 207 211 221 237 230 210 222 244 245 230 244 263 267 268 277 274 268 269 282 292 288 288 287 279 269 264 263 265 266 265 266 269 272 272 275
48 94 102 144 196 288 240 200 192 181 233 221 231 237 242 246 263 261 244 237 251 263 273 259 268 270 275 273 278 281 281 280 282 287 286 278 269 266 264 264 270 273 274 276
165 227 98 150 155 209 240 173 173 168 260 199 216 228 220 210 217 248 239 241 248 256 259 262 272 263 265 276 283 286 283 280 277 278 284 288 281 274 271 268 266 268 274 274
166 185 201 188 209 264 231 153 138 152 240 200 207 220 216 192 223 248 230 235 243 238 234 228 219 215 228 278 307 309 304 303 300 294 291 293 293 286 277 272 268 264 262 265
166 160 191 137 146 249 174 149 170 170 152 112 137 197 198 209 219 224 213 207 214 211 198 188 184 184 177 167 349 344 329 324 315 309 306 303 300 301 292 281 274 269 265 266
184 188 166 189 201 223 175 185 186 178 181 158 148 147 150 157 181 182 180 185 188 187 178 171 165 163 156 141 79 29 359 347 337 332 326 320 315 312 305 295 285 277 271 267
228 185 159 98 213 183 189 188 201 202 191 188 193 201 199 193 194 190 183 178 182 179 172 160 150 164 142 93 53 45 31 11 350 348 346 340 333 328 315 309 302 292 286 277
186 151 165 234 46 80 147 201 207 216 219 209 209 212 205 193 185 192 184 181 176 171 164 160 162 162 151 113 74 42 20 6 357 352 350 341 337 332 323 316 310 306 299 285
192 167 180 220 181 172 193 206 207 211 211 206 199 188 187 196 191 178 174 172 171 166 161 162 159 152 138 120 89 39 14 357 345 343 342 341 339 336 331 328 325 325 319 308